Theta_e
344 346 346 347 347 347 346 346 346 346 345 345 346 347 348 348 348 348 347 346 345 349 349 349 347 346 346 347 346 345 345 344 344 344 345 345 345 345 344 343 343 341 338 336 337 341 343 343 345 346 344 344 344 345 344 342 341 341 340 339 339 337
342 344 346 345 346 346 347 346 347 348 348 347 347 348 348 348 347 348 345 348 349 347 348 346 346 345 346 346 346 346 345 345 344 344 344 345 345 345 345 344 343 340 338 337 336 340 341 343 343 344 344 344 345 344 343 343 342 340 339 340 339 339
343 344 345 345 345 346 345 346 346 347 347 346 348 348 347 347 346 346 346 346 347 347 346 346 348 347 347 345 346 346 345 345 346 345 344 344 344 343 343 343 342 340 336 334 340 338 338 337 342 343 344 345 344 343 343 342 342 341 339 340 339 339
343 344 343 343 344 345 345 345 345 346 346 347 347 346 346 346 345 345 344 346 347 347 347 347 345 346 346 348 346 345 344 345 344 343 341 343 342 341 339 339 339 339 339 340 341 338 336 337 340 343 345 343 342 342 342 342 340 340 341 338 337 338
344 344 343 343 343 342 344 344 345 346 344 345 346 345 346 346 345 345 346 346 346 346 347 347 347 347 347 347 346 346 347 346 345 345 341 344 344 343 343 342 345 344 344 343 341 340 340 338 341 341 342 342 341 342 342 342 341 339 340 341 340 337
343 344 343 343 343 343 343 343 344 345 344 344 345 345 345 345 345 346 346 346 346 346 346 345 345 345 345 346 346 346 345 346 345 345 344 343 342 343 343 341 342 342 344 345 344 344 343 341 341 341 341 341 341 342 341 340 340 340 341 341 341 337
343 343 343 343 343 343 343 343 345 344 344 344 345 344 343 343 344 344 344 345 345 345 345 346 345 344 344 344 345 345 345 345 345 344 345 344 343 343 341 340 340 342 343 342 343 344 344 343 343 341 341 340 340 340 341 340 340 340 341 340 341 337
342 342 342 343 343 342 343 343 344 346 345 345 344 343 343 343 343 343 343 344 344 343 343 342 342 343 343 345 344 344 343 345 345 345 345 345 343 341 342 341 342 340 338 339 338 342 341 342 342 343 340 340 340 341 341 340 341 341 341 341 340 339
342 342 342 343 342 342 343 344 344 344 344 345 344 344 343 342 342 342 342 342 343 341 341 340 341 341 342 343 344 344 344 343 343 345 344 344 343 343 342 341 342 340 340 339 339 340 339 339 340 340 338 336 337 338 340 340 341 339 340 340 340 339
342 342 342 341 341 341 342 343 343 344 345 345 344 343 342 342 341 341 341 341 342 342 340 340 340 340 341 341 341 343 344 343 344 345 345 343 343 343 342 342 343 341 338 338 338 341 340 339 338 339 338 338 338 339 339 339 339 339 339 340 340 340
343 343 343 341 341 341 343 343 343 344 344 343 343 343 342 342 342 341 341 341 341 341 341 340 340 340 340 340 341 342 342 343 344 344 344 343 344 343 343 343 343 342 342 341 342 343 340 340 339 337 339 337 338 341 340 340 339 339 338 339 340 340
344 343 343 342 343 342 342 343 343 343 343 343 342 341 340 341 342 342 341 340 340 340 340 340 339 339 340 340 341 341 342 341 342 343 342 342 343 342 342 342 342 343 343 343 343 343 344 342 340 338 339 338 341 341 340 340 339 339 338 339 339 340
343 343 342 341 341 342 343 343 343 343 343 341 341 340 340 340 340 340 340 341 340 340 341 341 341 340 341 341 341 341 340 340 341 342 342 342 342 341 341 342 342 342 341 342 341 342 343 343 341 341 341 339 340 340 340 340 340 340 338 338 338 338
342 341 341 341 341 341 342 343 343 344 343 342 342 343 342 341 341 341 341 341 340 341 341 341 340 340 340 340 340 339 339 341 341 341 342 342 342 342 340 340 339 339 339 339 339 341 340 339 339 340 341 341 341 341 341 340 339 340 339 339 339 340
341 341 341 341 341 345 345 344 342 342 342 343 343 342 342 342 342 341 341 341 340 340 340 340 341 341 341 341 340 340 340 340 341 342 342 342 341 340 339 338 338 336 337 338 338 339 340 339 339 339 340 341 341 341 340 340 341 339 338 340 341 340
341 340 340 340 341 342 342 344 345 343 343 344 343 341 342 340 340 341 341 340 340 340 340 340 340 341 341 342 341 341 341 341 341 341 340 340 341 339 340 339 340 336 334 335 336 336 338 337 338 337 338 339 339 340 338 339 339 339 340 340 339 340
339 341 341 340 341 342 342 342 342 342 341 341 341 340 340 339 338 338 338 338 339 339 340 340 341 341 341 342 342 341 341 341 341 340 339 338 339 339 337 336 337 338 336 334 334 334 335 336 336 337 338 338 337 338 338 339 339 339 340 339 339 339
339 341 341 341 343 343 342 341 341 340 341 340 339 340 339 339 338 337 338 337 337 337 339 340 341 341 342 342 342 341 340 340 341 340 339 339 338 338 336 336 335 338 338 336 335 335 334 334 334 334 335 336 337 338 338 339 340 339 339 338 338 338
341 342 343 344 344 343 342 342 342 341 340 339 338 338 339 338 337 338 337 337 337 338 338 338 339 340 341 340 340 340 339 340 340 340 339 338 338 338 337 338 336 336 338 337 336 336 336 335 334 334 333 335 336 337 338 339 338 338 338 338 338 338
340 341 343 343 343 343 343 343 340 339 337 337 337 337 337 337 337 337 337 337 337 337 337 338 338 339 338 338 338 338 338 339 339 338 337 336 336 336 336 336 336 336 336 337 337 335 336 335 334 334 334 334 336 337 337 338 339 337 338 338 338 338
338 340 342 341 341 342 340 340 338 335 332 334 334 335 334 336 337 337 337 337 337 337 337 338 338 337 337 336 336 337 336 337 338 337 335 335 335 335 335 334 333 334 333 333 334 337 336 335 330 330 333 334 334 336 338 339 339 338 337 337 338 337
336 338 338 339 339 340 339 339 338 335 334 333 333 332 333 334 335 335 336 336 336 336 336 336 337 337 337 336 335 335 336 335 336 336 336 336 334 334 333 333 332 331 333 331 331 335 335 334 330 328 326 327 331 335 339 340 337 336 336 336 336 336
331 333 334 336 337 337 339 338 337 334 333 331 333 333 332 332 333 332 333 333 334 334 335 335 336 336 336 336 336 336 335 336 336 335 335 335 335 334 334 332 333 330 329 332 332 335 335 334 330 332 331 327 325 324 330 333 334 334 336 337 337 335
329 330 332 333 335 336 336 336 335 334 333 332 330 332 331 332 331 331 329 331 331 332 332 332 333 334 334 334 334 334 336 336 335 335 335 333 333 332 333 333 332 332 331 328 331 331 336 336 336 330 322 323 323 324 319 325 328 331 335 336 336 334
328 328 330 332 333 336 336 334 332 331 331 331 330 329 329 328 328 329 328 328 329 330 330 329 330 330 331 331 332 332 333 333 333 333 333 332 332 332 333 333 332 331 331 328 327 330 334 335 334 336 329 322 322 320 321 323 325 326 334 332 333 335
326 327 329 331 333 334 334 333 331 329 327 326 324 324 324 324 324 324 325 328 326 327 327 327 327 327 328 329 327 328 329 329 330 331 331 331 330 330 330 331 331 330 330 331 327 328 328 334 336 334 333 332 328 320 320 324 323 318 331 333 333 334
325 326 327 329 331 333 331 330 330 328 328 326 324 323 324 325 324 324 325 324 324 326 326 325 324 324 324 324 324 324 324 325 326 326 326 326 325 325 326 327 330 330 330 330 330 326 326 328 332 333 333 333 333 333 331 325 319 321 317 326 331 331
323 324 325 327 328 329 328 328 327 326 325 324 323 321 322 322 323 323 322 322 324 324 325 322 320 319 319 319 320 319 320 320 321 323 324 323 324 325 325 326 327 327 329 329 329 327 327 328 326 327 332 330 330 332 332 332 328 321 318 316 319 328
321 322 324 325 325 325 326 325 325 324 322 322 322 321 321 321 320 321 320 321 322 322 323 321 317 315 315 316 316 315 316 315 316 318 319 319 320 321 322 323 323 324 326 327 328 329 327 327 327 325 326 327 328 328 329 329 327 326 321 318 318 321
319 320 322 323 323 323 323 323 322 321 320 319 320 319 319 317 318 319 319 320 321 321 321 320 318 315 314 314 315 314 313 314 314 315 315 315 315 317 318 321 323 324 324 324 327 327 326 327 327 327 327 326 325 326 326 326 326 325 323 324 317 318
317 318 319 320 321 321 321 321 320 319 318 317 317 317 316 316 316 317 318 318 319 319 319 316 315 314 313 313 313 313 312 312 313 314 312 312 313 314 315 317 320 322 323 322 323 325 325 326 327 326 326 326 325 324 322 321 321 322 322 320 320 320
316 317 317 318 318 318 317 317 317 316 315 315 315 314 314 313 314 314 315 315 316 316 316 314 312 310 310 311 311 310 310 309 309 310 309 309 311 310 311 313 316 317 318 319 321 321 321 322 322 324 326 327 326 326 325 324 324 324 322 321 321 320
314 316 316 316 316 315 315 314 314 314 313 313 313 313 313 313 314 313 314 314 314 313 314 313 311 309 309 309 309 309 308 307 306 307 308 308 308 309 309 310 312 313 313 314 315 315 315 317 319 320 322 325 326 326 326 328 328 326 325 325 323 319
313 315 315 314 314 313 313 313 313 313 312 312 313 313 313 312 312 313 313 312 312 312 312 312 311 309 309 308 308 308 308 307 307 307 307 307 308 308 307 308 309 308 308 310 310 309 311 313 314 317 318 319 322 323 325 327 327 326 325 323 321 321
312 313 313 313 313 312 312 312 312 312 312 312 311 311 311 311 311 311 311 311 310 311 310 310 309 310 308 307 307 307 307 306 306 306 306 306 306 306 307 307 307 306 307 307 306 307 308 309 309 311 313 315 317 320 322 324 325 325 326 325 323 323
312 312 312 312 311 311 311 311 311 310 310 310 310 310 309 310 310 310 310 310 309 310 310 310 310 308 307 306 306 305 305 305 305 305 305 305 305 305 306 305 304 305 304 306 305 306 307 308 308 310 311 314 314 316 318 320 321 322 323 325 325 325
311 312 311 311 311 311 311 311 310 310 309 309 308 308 307 308 308 308 308 308 308 308 309 309 308 307 306 305 305 305 305 304 304 305 305 304 304 305 305 305 304 304 304 304 305 305 306 306 308 309 310 312 312 313 315 317 318 318 319 321 324 325
Wind_Speed
7 8 8 8 7 7 9 10 9 9 8 7 8 8 9 12 10 9 7 7 6 4 4 3 3 4 4 5 5 5 5 6 5 6 7 8 8 9 8 9 10 8 6 5 4 6 7 6 6 8 9 9 10 6 3 3 4 3 3 3 4 2
7 8 8 7 5 6 8 7 7 6 6 7 7 7 7 7 7 5 6 4 4 4 3 3 3 3 2 2 3 3 4 4 5 6 7 8 8 8 8 8 9 8 5 4 2 3 4 6 6 5 7 8 6 3 4 4 3 3 3 3 3 4
7 8 8 6 6 6 7 5 5 5 5 6 7 6 6 5 5 5 5 5 4 3 3 3 4 4 2 1 3 4 5 5 6 7 6 6 7 7 7 6 7 7 5 2 1 3 3 3 4 5 6 4 3 3 3 3 3 3 3 3 4 7
8 8 7 6 5 5 5 5 5 4 3 4 6 6 5 5 4 4 4 3 3 2 2 1 2 4 1 2 2 3 5 5 4 4 5 1 3 5 3 4 6 5 4 1 2 2 2 3 3 2 2 2 3 3 4 4 4 4 3 4 4 9
7 7 7 6 6 6 5 5 4 5 6 5 5 5 5 4 3 3 3 3 2 1 1 1 2 2 2 2 1 1 1 1 2 2 2 2 1 2 1 2 2 2 2 2 2 2 1 2 2 2 1 1 2 3 3 4 4 3 4 3 3 7
7 7 6 6 6 6 6 5 5 4 6 5 5 5 4 3 3 2 2 2 1 1 1 1 2 2 2 2 2 2 2 2 2 1 1 2 2 2 1 1 2 2 2 2 2 1 1 1 1 1 1 1 1 2 3 3 3 4 4 3 3 7
7 6 6 5 5 5 5 4 4 4 4 4 4 4 3 3 2 2 2 2 1 2 2 2 2 2 2 2 2 2 3 2 2 3 2 2 3 2 2 2 2 1 1 2 2 2 2 2 0 0 1 1 1 2 2 3 3 4 4 4 4 8
6 6 6 5 5 4 4 4 4 4 3 3 3 2 2 2 2 2 1 1 1 2 2 2 3 3 2 1 2 2 2 2 3 3 3 3 4 3 3 2 2 2 2 1 1 2 1 1 2 1 1 1 2 2 2 3 3 4 4 4 5 8
6 6 5 5 5 4 4 3 3 3 2 3 2 2 1 2 1 1 1 1 1 1 2 1 2 2 2 2 2 1 1 2 2 2 3 4 4 4 3 3 3 3 2 2 2 1 1 2 2 2 1 2 2 2 2 3 4 4 5 5 5 6
7 6 5 5 4 4 4 4 3 2 2 2 2 2 1 1 1 1 1 1 1 1 1 1 1 1 1 1 1 2 2 2 2 2 3 4 4 4 4 3 2 2 3 3 2 2 2 2 2 2 3 2 3 3 3 4 4 4 4 5 5 6
7 7 5 6 4 4 3 4 3 2 2 2 2 1 1 1 1 1 1 1 1 1 0 1 2 2 2 2 1 2 2 2 3 4 4 4 4 4 4 4 3 4 3 3 3 3 3 3 4 4 2 3 2 3 3 4 4 4 5 5 5 6
7 6 6 6 5 4 3 3 3 2 2 2 2 1 2 2 2 2 2 2 1 1 1 1 1 1 1 1 2 2 3 3 4 3 4 4 4 5 5 5 5 4 4 4 4 4 3 4 5 5 4 5 3 4 3 3 4 4 5 5 5 5
7 7 6 5 4 4 3 2 2 2 3 1 2 2 2 2 2 2 2 2 2 1 1 1 1 1 1 2 2 3 3 4 4 3 4 4 4 4 5 4 5 4 5 4 5 4 3 3 4 5 5 5 4 4 4 4 4 4 5 5 5 5
7 7 6 5 4 4 4 3 3 3 2 2 2 2 3 3 2 2 2 3 2 2 2 2 2 2 1 2 2 3 3 4 4 4 4 4 4 4 4 5 6 6 5 5 5 5 5 5 5 4 4 4 4 4 4 4 4 4 5 5 5 6
7 7 6 6 5 4 3 4 3 3 3 3 3 4 3 3 3 3 3 3 3 3 2 2 2 2 2 2 2 3 4 4 4 4 5 4 5 5 4 5 5 6 6 5 5 5 5 5 5 5 5 4 4 5 6 5 5 5 5 5 5 6
7 7 6 5 5 6 6 4 3 3 4 4 4 5 4 4 4 3 3 3 3 3 3 3 2 2 2 2 2 3 3 4 4 3 4 4 4 5 5 4 4 4 6 6 6 6 5 6 6 7 6 6 7 6 6 7 7 7 6 5 5 6
7 6 7 6 7 7 5 5 4 4 5 4 4 4 4 4 4 3 3 3 3 3 3 2 2 2 3 3 3 3 4 4 4 3 3 3 3 3 4 4 4 3 4 5 6 6 6 6 7 7 7 7 7 6 7 7 7 7 7 7 7 6
7 7 6 6 5 5 5 5 5 5 5 6 6 5 5 4 4 4 3 3 3 2 3 3 2 2 2 3 4 4 4 4 4 3 3 3 4 3 3 3 5 4 4 5 6 7 7 7 7 7 7 7 7 7 7 7 7 7 7 8 8 8
7 7 6 6 6 6 6 6 6 7 8 8 7 6 5 5 4 4 4 4 3 3 3 3 3 3 4 4 4 4 4 5 4 4 4 4 4 3 4 4 5 6 5 5 6 7 7 8 8 8 9 9 8 8 8 7 7 7 8 9 9 9
8 7 7 6 5 6 4 4 6 7 8 7 6 6 6 6 5 5 5 4 4 4 4 4 4 4 3 3 4 5 5 5 5 4 5 5 5 5 6 6 6 7 7 6 5 5 5 6 8 9 9 8 8 8 9 9 8 8 7 8 8 8
7 7 5 5 4 3 3 4 6 6 7 6 6 6 6 5 5 5 6 5 6 5 5 5 5 5 5 4 4 4 4 4 4 4 4 4 5 5 5 5 5 5 6 7 6 4 5 4 7 7 6 8 8 8 9 8 8 7 7 7 7 7
6 7 7 6 4 4 4 4 5 6 7 5 5 5 6 6 6 6 7 7 7 7 7 7 6 6 5 5 5 4 5 5 4 4 3 4 4 4 5 5 5 5 4 6 5 5 5 4 4 6 10 10 9 6 5 5 6 7 7 7 7 8
6 6 7 5 5 6 5 5 5 6 6 7 7 7 7 7 7 8 8 8 8 8 8 8 7 7 6 7 7 6 6 5 5 4 4 3 4 5 4 5 5 4 5 4 4 4 5 4 5 8 8 8 8 10 2 4 3 6 6 6 6 8
6 6 6 6 7 7 8 9 9 8 7 7 6 6 7 7 7 8 9 8 8 8 9 9 9 8 8 8 8 8 7 7 7 7 6 5 5 5 5 5 5 5 6 7 5 3 4 5 4 6 7 5 8 7 10 3 6 8 7 7 7 9
7 6 6 5 5 7 8 8 7 6 5 4 3 4 5 7 7 7 8 9 8 9 9 8 9 9 8 8 8 7 8 7 7 7 6 6 5 5 5 5 6 6 6 6 8 5 5 6 6 3 5 7 5 5 6 9 11 10 4 4 7 8
6 6 6 6 5 4 4 6 4 4 4 4 4 4 6 5 6 7 7 6 8 9 8 8 8 9 9 8 8 8 8 7 7 7 7 7 6 7 7 7 7 7 7 6 7 8 8 6 7 7 5 6 7 8 10 10 8 7 3 7 9 8
7 6 6 6 5 4 6 5 5 5 5 5 5 5 4 4 5 4 3 5 7 8 9 8 8 8 9 8 8 8 8 7 7 7 7 7 7 7 7 7 7 7 7 7 7 8 9 8 8 7 7 8 9 9 10 9 8 12 12 6 5 7
7 7 6 5 7 6 6 6 6 7 6 6 5 5 4 4 4 3 5 6 6 7 8 8 8 9 8 8 7 7 7 7 7 7 6 7 6 6 6 6 7 8 7 6 8 9 10 9 8 9 7 9 8 9 9 11 12 11 11 13 13 8
8 7 7 8 8 8 7 7 6 6 6 6 5 5 4 3 3 4 6 6 6 6 7 9 9 9 8 8 8 7 7 7 7 7 6 5 6 6 7 7 9 8 8 8 7 7 9 8 8 9 10 9 9 10 10 11 12 10 10 13 15 12
9 7 7 10 10 10 9 8 8 7 7 6 4 4 4 4 5 5 7 7 6 7 7 7 9 9 8 8 8 8 7 7 7 6 6 6 6 6 7 7 7 8 9 9 6 8 9 9 8 9 8 9 9 9 9 8 7 9 11 11 13 17
9 8 9 9 10 11 10 9 8 8 8 7 6 5 5 6 6 7 7 7 7 7 7 8 8 8 9 9 8 9 8 8 7 6 7 7 6 6 6 6 5 6 6 7 7 9 8 8 8 9 10 9 9 8 9 10 10 10 10 11 12 15
10 10 9 9 10 10 9 9 9 8 8 7 6 5 6 7 7 7 7 6 6 6 7 7 7 7 9 9 8 8 9 9 8 8 8 7 6 7 7 6 6 7 6 7 7 7 7 8 10 9 10 9 9 9 10 10 10 11 11 12 12 15
10 9 10 10 12 11 10 9 8 8 7 6 6 6 6 7 6 6 5 6 6 6 6 6 7 8 8 9 7 8 8 8 7 7 7 7 7 8 7 7 8 8 8 9 8 10 8 9 9 9 8 9 9 9 10 9 9 10 11 11 11 13
10 9 10 12 12 12 12 10 9 8 7 6 7 7 7 7 7 6 6 6 6 6 7 7 7 8 7 8 8 7 7 7 7 7 8 8 8 8 9 8 8 9 9 8 9 10 9 11 10 10 10 9 10 10 10 10 10 10 10 11 11 13
10 10 12 12 12 13 11 11 10 9 8 7 8 7 7 7 8 8 7 8 7 7 7 7 7 7 8 9 9 8 9 9 8 8 8 9 8 8 9 9 8 9 9 9 10 10 9 10 9 11 11 10 9 9 10 10 10 10 10 10 11 12
10 10 12 13 12 11 11 9 10 10 9 9 8 8 7 8 8 8 8 8 8 8 8 7 8 8 9 9 9 9 9 9 9 9 9 10 10 8 10 9 9 9 10 8 9 10 9 9 10 12 11 10 10 9 9 9 9 10 10 11 11 10
11 11 12 12 12 11 10 10 10 10 9 9 9 9 8 9 8 8 9 9 8 9 9 8 7 7 8 9 9 8 8 8 9 9 10 10 10 10 10 9 9 10 10 10 9 9 9 9 10 10 10 12 9 9 9 10 9 9 10 10 11 11
Wind_Direction
113 115 116 117 117 122 122 127 119 115 114 113 109 106 106 102 97 89 89 82 83 67 69 70 71 60 70 66 54 72 69 67 62 64 67 68 70 71 71 75 78 80 84 79 70 74 76 83 103 153 157 163 165 185 186 185 177 171 183 161 184 168
122 121 120 120 123 127 124 118 122 132 134 128 124 118 110 89 86 89 80 80 66 62 43 59 68 60 62 89 100 58 78 68 63 60 56 60 59 66 66 68 81 79 83 75 48 101 98 92 97 131 162 164 186 198 186 196 199 186 185 184 190 137
123 125 121 124 129 119 117 124 123 129 132 142 116 102 97 95 88 85 71 67 67 66 69 47 57 85 82 51 57 58 69 63 57 50 40 51 56 54 56 53 68 82 91 96 133 98 94 94 119 136 157 186 214 206 193 206 210 218 202 187 212 149
125 125 128 128 121 121 125 130 129 116 102 117 114 111 102 94 88 77 80 78 74 78 76 63 36 75 132 128 100 97 75 73 66 55 19 39 81 76 65 78 63 90 134 120 107 127 117 104 98 147 177 196 208 199 207 205 223 219 231 191 225 162
127 130 132 131 127 125 121 125 123 93 77 92 111 112 108 109 106 107 101 100 102 84 46 17 12 11 9 35 68 65 100 43 20 29 2 18 6 68 72 51 96 126 92 110 103 90 109 108 105 113 138 196 211 212 220 219 230 237 224 215 219 175
134 139 133 129 132 133 135 132 122 104 105 112 110 108 118 115 115 103 71 74 79 61 344 2 4 14 18 6 9 35 36 39 15 18 15 15 18 12 27 59 43 50 83 117 124 133 118 108 129 128 142 178 225 225 238 241 235 236 239 232 207 194
134 132 125 127 125 128 134 132 125 130 116 109 108 115 117 120 113 94 79 51 7 359 357 348 359 7 17 4 6 11 15 2 11 17 21 358 23 24 7 14 16 30 51 104 125 131 153 155 200 210 187 199 214 234 247 253 245 242 241 233 226 195
132 132 133 134 122 124 132 137 138 121 117 123 133 121 124 115 108 90 79 63 33 347 348 347 347 348 15 331 23 13 7 352 350 353 2 354 0 17 11 4 354 342 339 5 84 116 115 158 174 218 221 214 204 228 243 258 254 245 243 236 236 200
132 130 131 133 126 122 130 129 120 120 123 124 104 107 111 125 104 90 94 91 356 358 340 341 344 344 332 348 6 354 315 325 324 348 341 350 347 343 348 352 345 331 332 331 323 354 139 170 187 192 214 217 229 244 231 240 244 241 236 235 228 210
130 128 125 130 124 124 125 128 122 119 113 94 73 96 121 95 106 128 125 124 59 38 0 339 332 329 318 5 344 326 323 339 336 340 341 341 345 329 328 326 315 311 315 302 301 324 300 262 223 209 207 208 196 220 226 232 237 235 236 225 226 223
127 125 131 126 130 123 124 111 102 98 75 62 57 59 62 82 104 118 106 97 96 76 11 309 321 337 339 334 327 327 338 340 345 2 354 347 338 332 325 313 317 317 311 309 311 302 293 296 287 274 256 268 242 226 229 228 240 236 235 227 228 228
121 126 125 122 126 124 116 111 121 125 118 116 119 71 58 48 54 65 72 100 118 135 219 252 306 345 344 330 334 339 348 355 357 354 354 340 334 335 324 319 317 312 309 305 303 301 304 296 294 295 293 286 289 272 257 249 245 236 236 234 231 226
120 119 118 116 113 119 122 110 114 98 95 96 78 70 57 48 50 50 56 56 60 36 283 318 327 331 340 334 338 342 354 358 354 346 342 339 336 335 329 324 323 319 303 296 291 288 279 277 284 294 299 293 287 283 280 269 256 244 240 232 231 232
118 117 117 119 124 128 124 103 91 88 82 94 86 102 78 66 57 54 45 40 18 354 331 333 327 336 333 340 351 1 4 2 358 344 336 335 336 338 335 332 331 323 318 306 295 294 294 288 288 289 289 301 288 289 290 274 264 256 245 241 232 230
109 107 107 104 108 114 102 100 100 97 115 91 71 68 64 52 44 37 30 23 11 351 341 332 331 332 345 347 4 10 2 11 358 342 341 344 334 333 329 323 326 328 323 307 297 298 294 293 296 298 300 304 299 298 287 279 274 264 253 245 234 236
107 102 101 107 107 106 106 104 108 97 73 59 62 60 51 42 33 27 14 356 351 343 340 343 333 335 335 341 357 7 10 351 1 342 330 328 331 323 322 314 328 333 328 321 319 307 306 298 296 295 295 295 292 292 289 286 280 274 267 259 248 236
110 117 118 110 102 98 100 99 90 71 68 68 64 62 57 49 43 35 28 19 359 346 329 331 334 335 330 331 335 342 358 346 341 336 320 306 284 286 303 302 309 315 314 316 313 307 304 303 303 302 300 295 293 293 287 284 281 279 277 262 249 239
106 107 110 109 105 104 100 95 87 83 83 76 70 65 65 59 54 50 52 48 32 8 353 341 338 328 305 321 329 336 336 331 330 317 307 286 289 286 275 286 294 282 290 292 303 306 306 308 304 304 301 299 299 294 289 286 282 276 271 271 263 247
100 110 113 118 117 111 114 105 102 95 77 69 62 59 58 58 53 56 53 47 39 33 24 20 17 0 356 346 336 339 337 332 323 318 311 292 286 273 260 262 271 289 282 278 293 295 301 305 301 302 302 301 301 295 294 288 282 275 269 267 267 266
95 101 105 107 110 107 106 102 95 87 75 73 71 67 60 62 60 61 53 48 45 45 38 38 38 35 29 11 354 346 336 329 327 322 313 313 318 314 316 317 310 306 306 299 261 263 269 282 287 289 288 289 289 292 287 282 280 278 269 263 262 263
92 97 93 89 70 77 90 97 82 82 86 76 78 76 68 64 66 63 59 57 53 47 43 40 36 36 37 31 22 360 347 343 341 324 317 318 325 323 324 323 318 313 304 302 306 298 293 302 297 288 290 295 295 284 278 271 272 270 270 268 265 263
83 74 72 77 88 82 67 52 88 97 98 84 83 79 76 65 68 66 59 59 58 54 50 45 39 42 43 39 31 24 19 16 360 351 336 330 332 325 323 321 315 309 311 311 302 316 317 312 291 317 320 315 306 292 258 254 254 268 272 270 268 263
61 68 71 68 73 74 70 77 96 99 100 93 73 81 80 71 64 63 54 50 49 49 50 44 40 39 37 31 31 27 24 12 3 355 338 336 338 337 343 328 316 310 309 296 288 283 284 291 311 316 301 299 317 326 313 263 236 254 247 252 253 259
69 69 78 76 84 84 85 86 82 80 75 75 88 83 80 73 62 57 51 46 50 47 47 45 40 40 40 37 30 27 22 19 17 5 348 336 340 340 341 334 329 319 306 307 317 292 288 306 292 316 318 332 310 308 304 303 321 308 274 256 251 262
67 61 59 54 78 101 107 99 91 82 69 66 54 49 64 62 53 53 54 46 39 43 40 39 38 39 40 36 30 26 25 27 20 20 9 344 336 337 326 324 326 317 322 321 315 310 306 309 294 258 296 309 310 287 297 307 315 298 259 267 259 246
68 56 55 54 50 67 98 123 127 120 111 99 78 60 59 60 58 54 55 48 47 47 45 39 38 40 38 37 34 25 20 19 14 18 15 14 11 7 358 358 347 338 332 332 321 314 308 296 295 297 270 259 260 276 294 299 303 305 276 260 275 265
64 65 53 51 43 71 98 96 97 95 101 104 104 85 73 66 68 63 50 52 51 49 46 43 37 38 37 39 36 32 29 24 25 21 15 15 14 7 360 356 345 343 335 322 308 303 301 302 300 284 275 276 265 258 268 285 295 306 304 299 255 264
61 59 55 56 67 76 89 93 96 95 92 92 93 99 86 78 70 60 56 50 53 55 54 47 42 38 35 34 34 34 29 24 26 25 19 21 10 2 355 353 349 340 333 333 328 316 314 311 309 304 307 307 298 279 270 268 268 269 282 296 299 273
67 65 61 72 82 80 83 86 89 93 92 88 92 90 88 75 66 56 54 50 49 50 60 57 43 40 36 34 36 33 29 26 23 22 16 10 6 359 357 355 354 342 332 326 320 311 307 312 314 311 311 299 294 288 284 277 279 271 275 303 301 301
72 68 71 80 82 82 81 81 81 82 87 87 85 82 66 64 57 54 53 49 48 49 48 50 39 35 34 33 33 32 30 28 26 19 16 10 0 353 355 353 351 344 338 335 325 322 323 317 310 306 301 305 305 306 303 302 291 294 293 288 288 298
75 73 67 70 76 77 74 73 74 73 72 72 68 64 67 57 53 48 45 48 50 53 52 52 33 32 34 27 31 30 24 21 21 18 11 7 3 349 342 329 326 332 337 339 334 336 335 328 323 319 314 304 300 299 300 298 299 297 290 292 291 291
78 77 74 72 70 68 68 66 65 61 59 53 52 54 54 53 49 54 52 56 57 57 60 62 41 37 30 22 26 27 24 21 19 10 6 354 347 345 337 333 335 340 339 332 329 334 325 327 332 322 315 316 311 306 299 297 298 296 296 299 301 297
82 82 82 78 73 68 65 62 59 61 60 58 60 64 66 67 63 62 58 57 56 57 55 61 49 41 34 26 25 24 23 17 9 4 355 352 346 346 347 346 348 348 346 340 343 340 327 327 323 316 321 318 310 308 306 303 298 299 298 295 290 291
79 77 79 76 72 69 64 61 60 61 60 57 63 63 66 67 66 66 63 60 58 57 57 51 50 45 31 28 29 27 24 19 12 3 359 354 351 352 0 354 358 359 351 349 347 343 336 337 332 331 330 320 320 318 317 316 314 307 303 299 290 285
81 72 72 72 69 67 63 60 59 58 61 71 70 70 66 65 65 68 66 65 59 56 57 51 45 39 32 29 27 26 24 21 14 9 5 3 0 5 4 7 7 2 356 353 348 346 342 342 339 338 332 328 322 317 319 322 319 312 305 293 291 298
80 75 72 73 72 71 69 66 63 62 63 65 71 70 67 65 66 65 63 62 60 57 56 56 51 45 37 32 28 24 23 20 13 10 8 9 10 10 12 14 10 4 359 354 345 344 343 339 339 337 334 331 327 321 319 318 319 317 312 306 298 296
84 78 74 74 76 76 75 72 67 65 63 63 61 60 60 58 57 58 62 61 58 54 52 49 50 43 40 39 35 29 25 19 16 11 10 12 12 13 16 17 11 9 5 353 345 343 340 341 337 335 335 334 328 320 320 323 316 311 308 302 299 292